Alexandria, Egypt

10:55 AM EET on April 26, 2017 (GMT +0200)
Alexandria

Weather History for HEAX - January, 2013

Change the Weather History Date:

Wednesday, January 23, 2013

  Actual Average Record
Temperature  
Mean Temperature 58 °F -  
Max Temperature 69 °F 63 °F 74 °F (2015)
Min Temperature 48 °F 48 °F 42 °F (2005)
Degree Days  
Heating Degree Days 6    
Growing Degree Days 8 (Base 50)    
Moisture  
Dew Point 50 °F    
Average Humidity 73    
Maximum Humidity 94    
Minimum Humidity 28    
Precipitation  
Precipitation 0.00 in 0.04 in - ()
Sea Level Pressure  
Sea Level Pressure 30.11 in    
Wind  
Wind Speed 2 mph ()    
Max Wind Speed 9 mph    
Max Gust Speed -    
Visibility 5.0 miles    
Events      
Averages and records for this station are not official NWS values.
T = Trace of Precipitation, MM = Missing Value Source: Averaged Metar Reports

Daily Weather History Graph

Daily Weather History Graph

Search for Another Location

Airport or City:

Trip Planner

Search our weather history database for the weather conditions in past years. The results will help you decide how hot, cold, wet, or windy it might be!

Date:

Astronomy

Jan. 23, 2013 Rise Set
Actual Time 6:57 AM EET 5:27 PM EET
Civil Twilight 6:31 AM EET 5:53 PM EET
Nautical Twilight 6:01 AM EET 6:22 PM EET
Astronomical Twilight 5:32 AM EET 6:51 PM EET
Moon 2:24 PM EET (1/23) 3:49 AM EET (1/23)
Length of Visible Light 11h 21m
Length of Day
10h 30m
Waxing Gibbous, 87% of the Moon is Illuminated
Jan 23
Waxing Gibbous
Jan 27
Full
Feb 3
Last Quarter
Feb 10
New
Feb 17
First Quarter

Hourly Weather History & Observations

Time (EET) Temp. Dew Point Humidity Pressure Visibility Wind Dir Wind Speed Gust Speed Precip Events Conditions
12:00 AM 59.0 °F 51.8 °F 77% 30.06 in 6.2 mi Calm Calm - N/A   Partly Cloudy
1:00 AM 59.0 °F 51.8 °F 77% 30.06 in 6.2 mi Calm Calm - N/A   Partly Cloudy
2:00 AM 59 °F 53 °F 74% 30.08 in 6 mi Calm Calm - -  
2:00 AM 59.0 °F 53.6 °F 82% 30.06 in - Calm Calm - N/A   Clear
3:00 AM 55.4 °F 51.8 °F 88% 30.09 in - Calm Calm - N/A   Clear
4:00 AM 53.6 °F 51.8 °F 94% 30.09 in - Calm Calm - N/A   Clear
5:00 AM 50.0 °F 46.4 °F 87% 30.06 in - Calm Calm - N/A   Clear
6:00 AM 50.0 °F 46.4 °F 87% 30.06 in - Calm Calm - N/A   Clear
7:00 AM 48.2 °F 46.4 °F 93% 30.09 in 1.9 mi Calm Calm - N/A   Mist
8:00 AM 50 °F 47 °F 84% 30.13 in 4 mi South 2.3 mph - -   Mist
8:00 AM 50.0 °F 46.4 °F 87% 30.12 in 3.7 mi South 2.3 mph - N/A   Unknown
9:00 AM 57.2 °F 53.6 °F 88% 30.12 in - SW 4.6 mph - N/A   Clear
10:00 AM 62.6 °F 57.2 °F 82% 30.15 in - North 6.9 mph - N/A   Clear
11:00 AM 66.2 °F 55.4 °F 68% 30.15 in - SW 9.2 mph - N/A   Clear
12:00 PM 68.0 °F 53.6 °F 60% 30.12 in - SW 6.9 mph - N/A   Clear
1:00 PM 69.8 °F 35.6 °F 28% 30.12 in - West 6.9 mph - N/A   Clear
2:00 PM 68 °F 48 °F 38% 30.11 in 6 mi West 9.2 mph - -  
2:00 PM 68.0 °F 48.2 °F 49% 30.09 in - West 9.2 mph - N/A   Clear
3:00 PM 68.0 °F 46.4 °F 46% 30.12 in - West 9.2 mph - N/A   Clear
4:00 PM 66.2 °F 48.2 °F 52% 30.12 in - West 8.1 mph - N/A   Clear
5:00 PM 64.4 °F 48.2 °F 56% 30.12 in - WNW 3.5 mph - N/A   Clear
6:00 PM 62.6 °F 50.0 °F 63% 30.15 in - West 2.3 mph - N/A   Clear
7:00 PM 60.8 °F 50.0 °F 68% 30.15 in - WNW 2.3 mph - N/A   Clear
8:00 PM 60 °F 51 °F 65% 30.15 in 6 mi West 2.3 mph - -  
8:00 PM 60.8 °F 51.8 °F 72% 30.15 in - West 2.3 mph - N/A   Clear
9:00 PM 57.2 °F 51.8 °F 82% 30.12 in - Calm Calm - N/A   Clear
10:00 PM 53.6 °F 51.8 °F 94% 30.12 in - Calm Calm - N/A   Clear
11:00 PM 51.8 °F 50.0 °F 94% 30.12 in - Calm Calm - N/A   Clear